Location: Buisson
(44.2787°N, 4.9969°E)
Time: 07:18:30
(UTC+00:00)

Cosmos 1238 Rocket - Pass Details

Date: 18 April 2021
Orbit: 376 x 1020 km, 83.0° (Epoch: 05 May)

Event Time Altitude Azimuth Distance (km) Brightness Sun altitude
Rises 01:13:28 0° 352° (N) 3,550 7.7 -30.9°
Reaches altitude 10° 01:15:52 10° 354° (N) 2,670 6.9 -30.7°
Maximum altitude 01:22:09 82° 82° (E) 1,018 4.0 -30.1°
Enters shadow 01:22:22 81° 116° (ESE) 1,023 3.9 -30.1°
